Location: Ca�n Batista
(41.4099°N, 1.7752°E)
Time: 01:44:05
(UTC+00:00)

Cosmos 2084 Rocket - Visible Passes

Search period start: 25 June 2021 00:00
Search period end: 05 July 2021 00:00
Orbit: 521 x 659 km, 62.8° (Epoch: 24 June)

Date Brightness Start Highest point End Pass type
(mag) Time Alt. Az. Time Alt. Az. Time Alt. Az.
25 Jun 4.6 01:17:57 28° ESE 01:17:57 28° ESE 01:21:07 10° ENE visible
25 Jun 4.7 02:54:28 14° W 02:57:06 28° NW 03:00:34 10° NNE visible
26 Jun 3.5 01:25:34 53° ESE 01:25:34 53° ESE 01:29:22 10° NE visible
26 Jun 5.4 03:02:29 10° W 03:05:15 18° NW 03:08:03 10° N visible
27 Jun 3.0 01:33:08 77° WSW 01:33:22 82° NW 01:37:22 10° NE visible
27 Jun 5.8 03:11:52 10° WNW 03:13:29 12° NW 03:15:07 10° N visible
28 Jun 5.8 00:04:09 12° E 00:04:09 12° E 00:04:44 10° ENE visible
28 Jun 3.9 01:40:39 41° W 01:41:20 45° NW 01:45:10 10° NNE visible
29 Jun 5.2 00:11:38 21° ENE 00:11:38 21° ENE 00:13:25 10° ENE visible
29 Jun 4.8 01:48:08 23° WNW 01:49:23 27° NW 01:52:50 10° NNE visible
30 Jun 4.4 00:19:04 35° ENE 00:19:04 35° ENE 00:21:39 10° NE visible
30 Jun 5.5 01:55:34 13° WNW 01:57:32 18° NW 02:00:18 10° N visible
01 Jul 3.8 00:26:27 55° NNE 00:26:27 55° NNE 00:29:38 10° NE visible
01 Jul 5.9 02:04:12 10° WNW 02:05:46 12° NW 02:07:22 10° N visible
02 Jul 4.1 00:33:47 44° NW 00:33:47 44° NW 00:37:27 10° NNE visible
02 Jul 5.4 23:04:33 17° ENE 23:04:33 17° ENE 23:05:42 10° ENE visible
03 Jul 4.9 00:41:02 26° WNW 00:41:40 27° NW 00:45:06 10° NNE visible
03 Jul 4.7 23:11:45 29° ENE 23:11:45 29° ENE 23:13:56 10° NE visible
04 Jul 5.6 00:48:14 14° WNW 00:49:48 18° NW 00:52:33 10° N visible
04 Jul 3.9 23:18:52 50° NNE 23:18:52 50° NNE 23:21:54 10° NE visible
